Location: Theydon Bois
(51.6750°N, 0.1050°E)
Time: 20:03:15
(UTC+00:00)

Envisat - Pass Details

Date: 13 December 2019
Orbit: 764 x 766 km, 98.1° (Epoch: 28 January)

Event Time Altitude Azimuth Distance (km) Brightness Sun altitude
Rises 06:06:10 0° 21° (NNE) 3,247 6.3 -16.1°
Reaches altitude 10° 06:08:44 10° 31° (NNE) 2,316 5.7 -15.7°
Maximum altitude 06:13:17 32° 94° (E) 1,300 4.9 -15.0°
Drops below altitude 10° 06:17:48 10° 157° (SSE) 2,299 6.1 -14.4°
Sets 06:20:20 0° 168° (SSE) 3,220 6.7 -14.0°
